owner,sensor,date,latitude,longitude,vertical_datum,direction_of_sea_water_velocity,sea_water_speed,upward_sea_water_velocity,qcFlag 
TABS,ioos:station:wmo:42044:1,2006-06-01T00:00:00Z,26.1914,-97.0507,2.0,196.0415693,14.69210672,-99999.0,'11111222,11111222,99999999' 
TABS,ioos:station:wmo:42044:1,2006-06-01T00:30:00Z,26.1914,-97.0507,2.0,202.9318364,12.98634668,-99999.0,'11111222,11111222,99999999' 
TABS,ioos:station:wmo:42044:1,2006-06-01T01:00:00Z,26.1914,-97.0507,2.0,195.8232168,12.90917503,-99999.0,'11111222,11111222,99999999' 
TABS,ioos:station:wmo:42044:1,2006-06-01T01:30:00Z,26.1914,-97.0507,2.0,202.2631997,13.355643,-99999.0,'11111222,11111222,99999999' 
TABS,ioos:station:wmo:42044:1,2006-06-01T02:00:00Z,26.1914,-97.0507,2.0,196.5080453,15.51974549,-99999.0,'11111222,11111222,99999999' 
TABS,ioos:station:wmo:42044:1,2006-06-01T02:30:00Z,26.1914,-97.0507,2.0,196.1933482,16.17161093,-99999.0,'11111222,11111222,99999999' 
TABS,ioos:station:wmo:42044:1,2006-06-01T03:00:00Z,26.1914,-97.0507,2.0,204.4372342,14.69662546,-99999.0,'11111222,11111222,99999999' 
TABS,ioos:station:wmo:42044:1,2006-06-01T03:30:00Z,26.1914,-97.0507,2.0,191.8825585,15.1036585,-99999.0,'11111222,11111222,99999999' 
TABS,ioos:station:wmo:42044:1,2006-06-01T04:00:00Z,26.1914,-97.0507,2.0,191.9078111,15.21748008,-99999.0,'11111222,11111222,99999999' 
TABS,ioos:station:wmo:42044:1,2006-06-01T04:30:00Z,26.1914,-97.0507,2.0,192.8541319,14.69836045,-99999.0,'11111222,11111222,99999999' 
TABS,ioos:station:wmo:42044:1,2006-06-01T05:00:00Z,26.1914,-97.0507,2.0,188.9515003,15.68099805,-99999.0,'11111222,11111222,99999999' 
TABS,ioos:station:wmo:42044:1,2006-06-01T05:30:00Z,26.1914,-97.0507,2.0,185.7034172,16.40119813,-99999.0,'11111222,11111222,99999999' 
TABS,ioos:station:wmo:42044:1,2006-06-01T06:00:00Z,26.1914,-97.0507,2.0,193.8607847,16.65499925,-99999.0,'11111222,11111222,99999999' 
TABS,ioos:station:wmo:42044:1,2006-06-01T06:30:00Z,26.1914,-97.0507,2.0,193.4004577,16.18054696,-99999.0,'11111222,11111222,99999999' 
TABS,ioos:station:wmo:42044:1,2006-06-01T07:00:00Z,26.1914,-97.0507,2.0,193.782826,14.2709355,-99999.0,'11111222,11111222,99999999' 
TABS,ioos:station:wmo:42044:1,2006-06-01T07:30:00Z,26.1914,-97.0507,2.0,199.7577983,14.79075387,-99999.0,'11111222,11111222,99999999' 
TABS,ioos:station:wmo:42044:1,2006-06-01T08:00:00Z,26.1914,-97.0507,2.0,191.7155292,12.45957062,-99999.0,'11111222,11111222,99999999' 
TABS,ioos:station:wmo:42044:1,2006-06-01T08:30:00Z,26.1914,-97.0507,2.0,188.7047263,12.68613416,-99999.0,'11111222,11111222,99999999' 
TABS,ioos:station:wmo:42044:1,2006-06-01T09:00:00Z,26.1914,-97.0507,2.0,187.3393787,12.9158275,-99999.0,'11111222,11111222,99999999' 
TABS,ioos:station:wmo:42044:1,2006-06-01T09:30:00Z,26.1914,-97.0507,2.0,192.0660004,12.62901817,-99999.0,'11111222,11111222,99999999' 
TABS,ioos:station:wmo:42044:1,2006-06-01T10:00:00Z,26.1914,-97.0507,2.0,193.4246887,12.27542667,-99999.0,'11111222,11111222,99999999' 
TABS,ioos:station:wmo:42044:1,2006-06-01T10:30:00Z,26.1914,-97.0507,2.0,187.0207573,13.66244854,-99999.0,'11111222,11111222,99999999' 
TABS,ioos:station:wmo:42044:1,2006-06-01T11:00:00Z,26.1914,-97.0507,2.0,186.514762,10.13545263,-99999.0,'11111222,11111222,99999999' 
TABS,ioos:station:wmo:42044:1,2006-06-01T11:30:00Z,26.1914,-97.0507,2.0,195.7779597,9.414733135,-99999.0,'11133222,11111222,99999999' 
TABS,ioos:station:wmo:42044:1,2006-06-01T12:00:00Z,26.1914,-97.0507,2.0,187.8214202,10.50775904,-99999.0,'11111222,11111222,99999999' 
TABS,ioos:station:wmo:42044:1,2006-06-01T12:30:00Z,26.1914,-97.0507,2.0,184.7727357,10.21542461,-99999.0,'11111222,11111222,99999999' 
TABS,ioos:station:wmo:42044:1,2006-06-01T13:00:00Z,26.1914,-97.0507,2.0,193.7067185,10.55047392,-99999.0,'11111222,11111222,99999999' 
TABS,ioos:station:wmo:42044:1,2006-06-01T13:30:00Z,26.1914,-97.0507,2.0,194.8065969,8.295468643,-99999.0,'11133222,11111222,99999999' 
TABS,ioos:station:wmo:42044:1,2006-06-01T14:00:00Z,26.1914,-97.0507,2.0,192.7312422,10.11878451,-99999.0,'11111222,11111222,99999999' 
TABS,ioos:station:wmo:42044:1,2006-06-01T14:30:00Z,26.1914,-97.0507,2.0,191.2331586,7.340633488,-99999.0,'11133222,11111222,99999999' 
TABS,ioos:station:wmo:42044:1,2006-06-01T15:00:00Z,26.1914,-97.0507,2.0,200.1487029,7.083509017,-99999.0,'11133222,11111222,99999999' 
TABS,ioos:station:wmo:42044:1,2006-06-01T15:30:00Z,26.1914,-97.0507,2.0,187.7408477,7.498333148,-99999.0,'11133222,11111222,99999999' 
TABS,ioos:station:wmo:42044:1,2006-06-01T16:00:00Z,26.1914,-97.0507,2.0,173.8248974,6.50775691,-99999.0,'11133222,11111222,99999999' 
TABS,ioos:station:wmo:42044:1,2006-06-01T16:30:00Z,26.1914,-97.0507,2.0,165.1996822,6.185208161,-99999.0,'11133222,11111222,99999999' 
TABS,ioos:station:wmo:42044:1,2006-06-01T17:00:00Z,26.1914,-97.0507,2.0,174.2162566,6.251823734,-99999.0,'11133222,11111222,99999999' 
TABS,ioos:station:wmo:42044:1,2006-06-01T17:30:00Z,26.1914,-97.0507,2.0,179.5969362,12.8003164,-99999.0,'11111222,11111222,99999999' 
TABS,ioos:station:wmo:42044:1,2006-06-01T18:00:00Z,26.1914,-97.0507,2.0,175.4391706,15.46897863,-99999.0,'11111222,11111222,99999999' 
TABS,ioos:station:wmo:42044:1,2006-06-01T18:30:00Z,26.1914,-97.0507,2.0,184.3490178,16.8786048,-99999.0,'11111222,11111222,99999999' 
TABS,ioos:station:wmo:42044:1,2006-06-01T19:00:00Z,26.1914,-97.0507,2.0,177.9021077,17.21153392,-99999.0,'11111222,11111222,99999999' 
TABS,ioos:station:wmo:42044:1,2006-06-01T19:30:00Z,26.1914,-97.0507,2.0,183.4479288,18.12280883,-99999.0,'11111222,11111222,99999999' 
TABS,ioos:station:wmo:42044:1,2006-06-01T20:00:00Z,26.1914,-97.0507,2.0,191.3928532,17.56614073,-99999.0,'11111222,11111222,99999999' 
TABS,ioos:station:wmo:42044:1,2006-06-01T20:30:00Z,26.1914,-97.0507,2.0,200.6797762,16.22545223,-99999.0,'11111222,11111222,99999999' 
TABS,ioos:station:wmo:42044:1,2006-06-01T21:00:00Z,26.1914,-97.0507,2.0,188.9020046,13.11802195,-99999.0,'11111222,11111222,99999999' 
TABS,ioos:station:wmo:42044:1,2006-06-01T21:30:00Z,26.1914,-97.0507,2.0,197.7893398,12.63410068,-99999.0,'11111222,11111222,99999999' 
TABS,ioos:station:wmo:42044:1,2006-06-01T22:00:00Z,26.1914,-97.0507,2.0,195.5441223,10.59762709,-99999.0,'11111222,11111222,99999999' 
TABS,ioos:station:wmo:42044:1,2006-06-01T22:30:00Z,26.1914,-97.0507,2.0,207.6356005,11.96505328,-99999.0,'11111222,11111222,99999999' 
TABS,ioos:station:wmo:42044:1,2006-06-01T23:00:00Z,26.1914,-97.0507,2.0,211.0616012,9.012263867,-99999.0,'11133222,11111222,99999999' 
TABS,ioos:station:wmo:42044:1,2006-06-01T23:30:00Z,26.1914,-97.0507,2.0,215.8790282,10.52757332,-99999.0,'11111222,11111222,99999999' 
TABS,ioos:station:wmo:42044:1,2006-06-02T00:00:00Z,26.1914,-97.0507,2.0,218.1824776,8.816314423,-99999.0,'11133222,11111222,99999999' 
TABS,ioos:station:wmo:42044:1,2006-06-02T00:30:00Z,26.1914,-97.0507,2.0,207.1742837,8.408091341,-99999.0,'11133222,11111222,99999999' 
TABS,ioos:station:wmo:42044:1,2006-06-02T01:00:00Z,26.1914,-97.0507,2.0,217.0762105,8.874057696,-99999.0,'11133222,11111222,99999999' 
TABS,ioos:station:wmo:42044:1,2006-06-02T01:30:00Z,26.1914,-97.0507,2.0,194.8379866,8.31736136,-99999.0,'11133222,11111222,99999999' 
TABS,ioos:station:wmo:42044:1,2006-06-02T02:00:00Z,26.1914,-97.0507,2.0,188.1058193,6.737314005,-99999.0,'11133222,11111222,99999999' 
TABS,ioos:station:wmo:42044:1,2006-06-02T02:30:00Z,26.1914,-97.0507,2.0,201.2560907,10.15056649,-99999.0,'11111222,11111222,99999999' 
TABS,ioos:station:wmo:42044:1,2006-06-02T03:00:00Z,26.1914,-97.0507,2.0,202.3236511,9.977825414,-99999.0,'11133222,11111222,99999999' 
TABS,ioos:station:wmo:42044:1,2006-06-02T03:30:00Z,26.1914,-97.0507,2.0,178.1046692,8.16446569,-99999.0,'11133222,11111222,99999999' 
TABS,ioos:station:wmo:42044:1,2006-06-02T04:00:00Z,26.1914,-97.0507,2.0,178.1865665,10.7453804,-99999.0,'11111222,11111222,99999999' 
TABS,ioos:station:wmo:42044:1,2006-06-02T04:30:00Z,26.1914,-97.0507,2.0,182.5226785,10.45012919,-99999.0,'11111222,11111222,99999999' 
TABS,ioos:station:wmo:42044:1,2006-06-02T05:00:00Z,26.1914,-97.0507,2.0,185.6953482,11.38621096,-99999.0,'11111222,11111222,99999999' 
TABS,ioos:station:wmo:42044:1,2006-06-02T05:30:00Z,26.1914,-97.0507,2.0,178.8368426,11.33233427,-99999.0,'11111222,11111222,99999999' 
TABS,ioos:station:wmo:42044:1,2006-06-02T06:00:00Z,26.1914,-97.0507,2.0,178.6165665,12.01350074,-99999.0,'11111222,11111222,99999999' 
TABS,ioos:station:wmo:42044:1,2006-06-02T06:30:00Z,26.1914,-97.0507,2.0,177.5538652,13.12195488,-99999.0,'11111222,11111222,99999999' 
TABS,ioos:station:wmo:42044:1,2006-06-02T07:00:00Z,26.1914,-97.0507,2.0,190.1968206,11.41022787,-99999.0,'11111222,11111222,99999999' 
TABS,ioos:station:wmo:42044:1,2006-06-02T07:30:00Z,26.1914,-97.0507,2.0,187.5004679,9.269314969,-99999.0,'11133222,11111222,99999999' 
TABS,ioos:station:wmo:42044:1,2006-06-02T08:00:00Z,26.1914,-97.0507,2.0,190.714602,8.874733799,-99999.0,'11133222,11111222,99999999' 
TABS,ioos:station:wmo:42044:1,2006-06-02T08:30:00Z,26.1914,-97.0507,2.0,201.3023955,6.826419266,-99999.0,'11133222,11111222,99999999' 
TABS,ioos:station:wmo:42044:1,2006-06-02T09:00:00Z,26.1914,-97.0507,2.0,205.6803535,7.822697744,-99999.0,'11133222,11111222,99999999' 
TABS,ioos:station:wmo:42044:1,2006-06-02T09:30:00Z,26.1914,-97.0507,2.0,220.9461396,7.202221879,-99999.0,'11133222,11111222,99999999' 
TABS,ioos:station:wmo:42044:1,2006-06-02T10:00:00Z,26.1914,-97.0507,2.0,235.3269141,4.851566757,-99999.0,'11133222,11111222,99999999' 
TABS,ioos:station:wmo:42044:1,2006-06-02T10:30:00Z,26.1914,-97.0507,2.0,258.589642,10.10980217,-99999.0,'11111222,11111222,99999999' 
TABS,ioos:station:wmo:42044:1,2006-06-02T11:00:00Z,26.1914,-97.0507,2.0,263.7368112,9.808537098,-99999.0,'11133222,11111222,99999999' 
TABS,ioos:station:wmo:42044:1,2006-06-02T11:30:00Z,26.1914,-97.0507,2.0,275.7754575,8.844891181,-99999.0,'11133222,11111222,99999999' 
TABS,ioos:station:wmo:42044:1,2006-06-02T12:00:00Z,26.1914,-97.0507,2.0,268.849988,5.981203892,-99999.0,'11133222,11111222,99999999' 
TABS,ioos:station:wmo:42044:1,2006-06-02T12:30:00Z,26.1914,-97.0507,2.0,319.1717047,8.748874213,-99999.0,'11133222,11111222,99999999' 
TABS,ioos:station:wmo:42044:1,2006-06-02T13:00:00Z,26.1914,-97.0507,2.0,291.8667404,3.275667871,-99999.0,'11133222,11111222,99999999' 
TABS,ioos:station:wmo:42044:1,2006-06-02T13:30:00Z,26.1914,-97.0507,2.0,324.7160327,2.891107054,-99999.0,'11133222,11111222,99999999' 
TABS,ioos:station:wmo:42044:1,2006-06-02T14:00:00Z,26.1914,-97.0507,2.0,342.2353987,5.407864643,-99999.0,'11133222,11111222,99999999' 
TABS,ioos:station:wmo:42044:1,2006-06-02T14:30:00Z,26.1914,-97.0507,2.0,336.9655115,14.23498858,-99999.0,'11111222,11111222,99999999' 
TABS,ioos:station:wmo:42044:1,2006-06-02T15:00:00Z,26.1914,-97.0507,2.0,348.5331038,13.58109348,-99999.0,'11111222,11111222,99999999' 
TABS,ioos:station:wmo:42044:1,2006-06-02T15:30:00Z,26.1914,-97.0507,2.0,353.9005887,10.25807487,-99999.0,'11111222,11111222,99999999' 
TABS,ioos:station:wmo:42044:1,2006-06-02T16:00:00Z,26.1914,-97.0507,2.0,2.483927721,8.538020848,-99999.0,'11133222,11111222,99999999' 
TABS,ioos:station:wmo:42044:1,2006-06-02T16:30:00Z,26.1914,-97.0507,2.0,10.62691509,19.90131905,-99999.0,'11111222,11111222,99999999' 
TABS,ioos:station:wmo:42044:1,2006-06-02T17:00:00Z,26.1914,-97.0507,2.0,14.77438941,18.07767961,-99999.0,'11111222,11111222,99999999' 
TABS,ioos:station:wmo:42044:1,2006-06-02T17:30:00Z,26.1914,-97.0507,2.0,41.20324694,9.396861178,-99999.0,'11133222,11111222,99999999' 
TABS,ioos:station:wmo:42044:1,2006-06-02T18:00:00Z,26.1914,-97.0507,2.0,42.4272411,9.293680649,-99999.0,'11133222,11111222,99999999' 
TABS,ioos:station:wmo:42044:1,2006-06-02T18:30:00Z,26.1914,-97.0507,2.0,47.25159493,8.27954105,-99999.0,'11133222,11111222,99999999' 
TABS,ioos:station:wmo:42044:1,2006-06-02T19:00:00Z,26.1914,-97.0507,2.0,58.43826196,8.215229759,-99999.0,'11133222,11111222,99999999' 
TABS,ioos:station:wmo:42044:1,2006-06-02T19:30:00Z,26.1914,-97.0507,2.0,58.81199861,8.322890123,-99999.0,'11133222,11111222,99999999' 
TABS,ioos:station:wmo:42044:1,2006-06-02T20:00:00Z,26.1914,-97.0507,2.0,49.01427154,7.272757386,-99999.0,'11133222,11111222,99999999' 
TABS,ioos:station:wmo:42044:1,2006-06-02T20:30:00Z,26.1914,-97.0507,2.0,58.22757639,10.69228694,-99999.0,'11111222,11111222,99999999' 
TABS,ioos:station:wmo:42044:1,2006-06-02T21:00:00Z,26.1914,-97.0507,2.0,69.05355199,8.58750837,-99999.0,'11133222,11111222,99999999' 
TABS,ioos:station:wmo:42044:1,2006-06-02T21:30:00Z,26.1914,-97.0507,2.0,87.60802821,7.906889401,-99999.0,'11133222,11111222,99999999' 
TABS,ioos:station:wmo:42044:1,2006-06-02T22:00:00Z,26.1914,-97.0507,2.0,99.53817395,8.690138089,-99999.0,'11133222,11111222,99999999' 
TABS,ioos:station:wmo:42044:1,2006-06-02T22:30:00Z,26.1914,-97.0507,2.0,115.1168121,7.962945435,-99999.0,'11133222,11111222,99999999' 
TABS,ioos:station:wmo:42044:1,2006-06-02T23:00:00Z,26.1914,-97.0507,2.0,128.9125483,9.201847641,-99999.0,'11133222,11111222,99999999' 
TABS,ioos:station:wmo:42044:1,2006-06-02T23:30:00Z,26.1914,-97.0507,2.0,134.2162646,9.30639565,-99999.0,'11133222,11111222,99999999' 
TABS,ioos:station:wmo:42044:1,2006-06-03T00:00:00Z,26.1914,-97.0507,2.0,141.8173288,11.43700136,-99999.0,'11111222,11111222,99999999' 
TABS,ioos:station:wmo:42044:1,2006-06-03T00:30:00Z,26.1914,-97.0507,2.0,149.7478819,9.249632425,-99999.0,'11133222,11111222,99999999' 
TABS,ioos:station:wmo:42044:1,2006-06-03T01:00:00Z,26.1914,-97.0507,2.0,174.4153003,9.042919882,-99999.0,'11133222,11111222,99999999' 
TABS,ioos:station:wmo:42044:1,2006-06-03T01:30:00Z,26.1914,-97.0507,2.0,173.8007163,8.519818073,-99999.0,'11133222,11111222,99999999' 
TABS,ioos:station:wmo:42044:1,2006-06-03T02:00:00Z,26.1914,-97.0507,2.0,156.4374506,9.305874489,-99999.0,'11133222,11111222,99999999' 
TABS,ioos:station:wmo:42044:1,2006-06-03T02:30:00Z,26.1914,-97.0507,2.0,150.784117,9.670160288,-99999.0,'11133222,11111222,99999999' 
TABS,ioos:station:wmo:42044:1,2006-06-03T03:00:00Z,26.1914,-97.0507,2.0,169.3011432,11.58131685,-99999.0,'11111222,11111222,99999999' 
TABS,ioos:station:wmo:42044:1,2006-06-03T03:30:00Z,26.1914,-97.0507,2.0,161.1774155,10.75515225,-99999.0,'11111222,11111222,99999999' 
TABS,ioos:station:wmo:42044:1,2006-06-03T04:00:00Z,26.1914,-97.0507,2.0,170.946372,11.05775746,-99999.0,'11111222,11111222,99999999' 
TABS,ioos:station:wmo:42044:1,2006-06-03T04:30:00Z,26.1914,-97.0507,2.0,172.1277929,9.41875788,-99999.0,'11133222,11111222,99999999' 
TABS,ioos:station:wmo:42044:1,2006-06-03T05:00:00Z,26.1914,-97.0507,2.0,171.7372229,11.62062391,-99999.0,'11111222,11111222,99999999' 
TABS,ioos:station:wmo:42044:1,2006-06-03T05:30:00Z,26.1914,-97.0507,2.0,183.0744879,11.18610299,-99999.0,'11111222,11111222,99999999' 
TABS,ioos:station:wmo:42044:1,2006-06-03T06:00:00Z,26.1914,-97.0507,2.0,194.0360002,9.854222445,-99999.0,'11133222,11111222,99999999' 
TABS,ioos:station:wmo:42044:1,2006-06-03T06:30:00Z,26.1914,-97.0507,2.0,182.145456,11.21786522,-99999.0,'11111222,11111222,99999999' 
TABS,ioos:station:wmo:42044:1,2006-06-03T07:00:00Z,26.1914,-97.0507,2.0,184.9084957,10.16729069,-99999.0,'11111222,11111222,99999999' 
TABS,ioos:station:wmo:42044:1,2006-06-03T07:30:00Z,26.1914,-97.0507,2.0,192.6471339,11.007075,-99999.0,'11111222,11111222,99999999' 
TABS,ioos:station:wmo:42044:1,2006-06-03T08:00:00Z,26.1914,-97.0507,2.0,206.5647786,9.234960747,-99999.0,'11133222,11111222,99999999' 
TABS,ioos:station:wmo:42044:1,2006-06-03T08:30:00Z,26.1914,-97.0507,2.0,202.3887751,10.50162368,-99999.0,'11111222,11111222,99999999' 
TABS,ioos:station:wmo:42044:1,2006-06-03T09:00:00Z,26.1914,-97.0507,2.0,202.1057935,9.778854739,-99999.0,'11133222,11111222,99999999' 
TABS,ioos:station:wmo:42044:1,2006-06-03T09:30:00Z,26.1914,-97.0507,2.0,204.8232984,10.74256022,-99999.0,'11111222,11111222,99999999' 
TABS,ioos:station:wmo:42044:1,2006-06-03T10:00:00Z,26.1914,-97.0507,2.0,209.971528,9.708274821,-99999.0,'11133222,11111222,99999999' 
TABS,ioos:station:wmo:42044:1,2006-06-03T10:30:00Z,26.1914,-97.0507,2.0,201.801148,9.800999949,-99999.0,'11133222,11111222,99999999' 
TABS,ioos:station:wmo:42044:1,2006-06-03T11:00:00Z,26.1914,-97.0507,2.0,203.0914178,10.55574251,-99999.0,'11111222,11111222,99999999' 
TABS,ioos:station:wmo:42044:1,2006-06-03T11:30:00Z,26.1914,-97.0507,2.0,202.4791714,12.55388386,-99999.0,'11111222,11111222,99999999' 
TABS,ioos:station:wmo:42044:1,2006-06-03T12:00:00Z,26.1914,-97.0507,2.0,196.9205505,10.65110792,-99999.0,'11111222,11111222,99999999' 
TABS,ioos:station:wmo:42044:1,2006-06-03T12:30:00Z,26.1914,-97.0507,2.0,202.5506123,12.77693234,-99999.0,'11111222,11111222,99999999' 
TABS,ioos:station:wmo:42044:1,2006-06-03T13:00:00Z,26.1914,-97.0507,2.0,215.6269611,11.89679789,-99999.0,'11111222,11111222,99999999' 
TABS,ioos:station:wmo:42044:1,2006-06-03T13:30:00Z,26.1914,-97.0507,2.0,212.6876243,12.36893286,-99999.0,'11111222,11111222,99999999' 
TABS,ioos:station:wmo:42044:1,2006-06-03T14:00:00Z,26.1914,-97.0507,2.0,216.3338544,11.12248623,-99999.0,'11111222,11111222,99999999' 
TABS,ioos:station:wmo:42044:1,2006-06-03T14:30:00Z,26.1914,-97.0507,2.0,251.9087872,10.53057453,-99999.0,'11111222,11111222,99999999' 
TABS,ioos:station:wmo:42044:1,2006-06-03T15:00:00Z,26.1914,-97.0507,2.0,257.4878428,7.293202314,-99999.0,'11133222,11111222,99999999' 
TABS,ioos:station:wmo:42044:1,2006-06-03T15:30:00Z,26.1914,-97.0507,2.0,250.709578,8.687744241,-99999.0,'11133222,11111222,99999999' 
TABS,ioos:station:wmo:42044:1,2006-06-03T16:00:00Z,26.1914,-97.0507,2.0,246.7882622,5.886467532,-99999.0,'11133222,11111222,99999999' 
TABS,ioos:station:wmo:42044:1,2006-06-03T16:30:00Z,26.1914,-97.0507,2.0,239.8793713,9.086979696,-99999.0,'11133222,11111222,99999999' 
TABS,ioos:station:wmo:42044:1,2006-06-03T17:00:00Z,26.1914,-97.0507,2.0,244.9068176,9.573531219,-99999.0,'11133222,11111222,99999999' 
TABS,ioos:station:wmo:42044:1,2006-06-03T17:30:00Z,26.1914,-97.0507,2.0,235.8158519,7.724487038,-99999.0,'11133222,11111222,99999999' 
TABS,ioos:station:wmo:42044:1,2006-06-03T18:00:00Z,26.1914,-97.0507,2.0,240.6292434,4.93420713,-99999.0,'11133222,11111222,99999999' 
TABS,ioos:station:wmo:42044:1,2006-06-03T18:30:00Z,26.1914,-97.0507,2.0,251.2571077,8.247338965,-99999.0,'11133222,11111222,99999999' 
TABS,ioos:station:wmo:42044:1,2006-06-03T19:00:00Z,26.1914,-97.0507,2.0,239.2249056,7.798083098,-99999.0,'11133222,11111222,99999999' 
TABS,ioos:station:wmo:42044:1,2006-06-03T19:30:00Z,26.1914,-97.0507,2.0,231.9276827,9.438077135,-99999.0,'11133222,11111222,99999999' 
TABS,ioos:station:wmo:42044:1,2006-06-03T20:00:00Z,26.1914,-97.0507,2.0,236.9729241,8.384855395,-99999.0,'11133222,11111222,99999999' 
TABS,ioos:station:wmo:42044:1,2006-06-03T20:30:00Z,26.1914,-97.0507,2.0,230.9660899,12.44887545,-99999.0,'11111222,11111222,99999999' 
TABS,ioos:station:wmo:42044:1,2006-06-03T21:00:00Z,26.1914,-97.0507,2.0,227.7125525,14.34205704,-99999.0,'11111222,11111222,99999999' 
TABS,ioos:station:wmo:42044:1,2006-06-03T21:30:00Z,26.1914,-97.0507,2.0,239.6261083,18.31359058,-99999.0,'11111222,11111222,99999999' 
TABS,ioos:station:wmo:42044:1,2006-06-03T22:00:00Z,26.1914,-97.0507,2.0,243.3697638,23.71575215,-99999.0,'11111222,11111222,99999999' 
TABS,ioos:station:wmo:42044:1,2006-06-03T22:30:00Z,26.1914,-97.0507,2.0,242.1647244,23.40843651,-99999.0,'11111222,11111222,99999999' 
TABS,ioos:station:wmo:42044:1,2006-06-03T23:00:00Z,26.1914,-97.0507,2.0,249.5067889,22.27996634,-99999.0,'11111222,11111222,99999999' 
TABS,ioos:station:wmo:42044:1,2006-06-03T23:30:00Z,26.1914,-97.0507,2.0,251.7645876,22.65785736,-99999.0,'11111222,11111222,99999999' 
TABS,ioos:station:wmo:42044:1,2006-06-04T00:00:00Z,26.1914,-97.0507,2.0,258.6408882,25.33625268,-99999.0,'11111222,11111222,99999999' 
TABS,ioos:station:wmo:42044:1,2006-06-04T00:30:00Z,26.1914,-97.0507,2.0,257.4971799,28.27038026,-99999.0,'11111222,11111222,99999999' 
TABS,ioos:station:wmo:42044:1,2006-06-04T01:00:00Z,26.1914,-97.0507,2.0,260.3090891,23.9416144,-99999.0,'11111222,11111222,99999999' 
TABS,ioos:station:wmo:42044:1,2006-06-04T01:30:00Z,26.1914,-97.0507,2.0,259.1748066,23.16214584,-99999.0,'11111222,11111222,99999999' 
TABS,ioos:station:wmo:42044:1,2006-06-04T02:00:00Z,26.1914,-97.0507,2.0,262.6315452,22.22350332,-99999.0,'11111222,11111222,99999999' 
TABS,ioos:station:wmo:42044:1,2006-06-04T02:30:00Z,26.1914,-97.0507,2.0,265.1255002,22.83256665,-99999.0,'11111222,11111222,99999999' 
TABS,ioos:station:wmo:42044:1,2006-06-04T03:00:00Z,26.1914,-97.0507,2.0,269.6477167,19.54036847,-99999.0,'11111222,11111222,99999999' 
TABS,ioos:station:wmo:42044:1,2006-06-04T03:30:00Z,26.1914,-97.0507,2.0,272.2898821,20.02598562,-99999.0,'11111222,11111222,99999999' 
TABS,ioos:station:wmo:42044:1,2006-06-04T04:00:00Z,26.1914,-97.0507,2.0,267.0677807,18.9648227,-99999.0,'11111222,11111222,99999999' 
TABS,ioos:station:wmo:42044:1,2006-06-04T04:30:00Z,26.1914,-97.0507,2.0,274.566325,19.97338729,-99999.0,'11111222,11111222,99999999' 
TABS,ioos:station:wmo:42044:1,2006-06-04T05:00:00Z,26.1914,-97.0507,2.0,271.8030391,19.70975393,-99999.0,'11111222,11111222,99999999' 
TABS,ioos:station:wmo:42044:1,2006-06-04T05:30:00Z,26.1914,-97.0507,2.0,276.1957554,21.4050111,-99999.0,'11111222,11111222,99999999' 
TABS,ioos:station:wmo:42044:1,2006-06-04T06:00:00Z,26.1914,-97.0507,2.0,276.7504593,19.14269051,-99999.0,'11111222,11111222,99999999' 
TABS,ioos:station:wmo:42044:1,2006-06-04T06:30:00Z,26.1914,-97.0507,2.0,275.9399355,19.42427605,-99999.0,'11111222,11111222,99999999' 
TABS,ioos:station:wmo:42044:1,2006-06-04T07:00:00Z,26.1914,-97.0507,2.0,279.1101369,19.76935254,-99999.0,'11111222,11111222,99999999' 
TABS,ioos:station:wmo:42044:1,2006-06-04T07:30:00Z,26.1914,-97.0507,2.0,282.2596818,17.75486975,-99999.0,'11111222,11111222,99999999' 
TABS,ioos:station:wmo:42044:1,2006-06-04T08:00:00Z,26.1914,-97.0507,2.0,289.0757886,16.12546123,-99999.0,'11111222,11111222,99999999' 
TABS,ioos:station:wmo:42044:1,2006-06-04T08:30:00Z,26.1914,-97.0507,2.0,285.6175268,15.82419666,-99999.0,'11111222,11111222,99999999' 
TABS,ioos:station:wmo:42044:1,2006-06-04T09:00:00Z,26.1914,-97.0507,2.0,287.9226276,14.13594709,-99999.0,'11111222,11111222,99999999' 
TABS,ioos:station:wmo:42044:1,2006-06-04T09:30:00Z,26.1914,-97.0507,2.0,288.4757611,13.44284568,-99999.0,'11111222,11111222,99999999' 
TABS,ioos:station:wmo:42044:1,2006-06-04T10:00:00Z,26.1914,-97.0507,2.0,285.6725326,11.80902197,-99999.0,'11111222,11111222,99999999' 
TABS,ioos:station:wmo:42044:1,2006-06-04T10:30:00Z,26.1914,-97.0507,2.0,291.2536061,10.8692456,-99999.0,'11111222,11111222,99999999' 
TABS,ioos:station:wmo:42044:1,2006-06-04T11:00:00Z,26.1914,-97.0507,2.0,280.8575853,9.927708698,-99999.0,'11133222,11111222,99999999' 
TABS,ioos:station:wmo:42044:1,2006-06-04T11:30:00Z,26.1914,-97.0507,2.0,290.8847939,10.21083738,-99999.0,'11111222,11111222,99999999' 
TABS,ioos:station:wmo:42044:1,2006-06-04T12:00:00Z,26.1914,-97.0507,2.0,280.0435535,10.37904138,-99999.0,'11111222,11111222,99999999' 
TABS,ioos:station:wmo:42044:1,2006-06-04T12:30:00Z,26.1914,-97.0507,2.0,269.539383,9.96032128,-99999.0,'11133222,11111222,99999999' 
TABS,ioos:station:wmo:42044:1,2006-06-04T13:00:00Z,26.1914,-97.0507,2.0,270.8589328,10.01112381,-99999.0,'11111222,11111222,99999999' 
TABS,ioos:station:wmo:42044:1,2006-06-04T13:30:00Z,26.1914,-97.0507,2.0,270.8267431,10.40108167,-99999.0,'11111222,11111222,99999999' 
TABS,ioos:station:wmo:42044:1,2006-06-04T14:00:00Z,26.1914,-97.0507,2.0,265.0744457,10.01698557,-99999.0,'11111222,11111222,99999999' 
TABS,ioos:station:wmo:42044:1,2006-06-04T14:30:00Z,26.1914,-97.0507,2.0,244.2766854,8.824477322,-99999.0,'11133222,11111222,99999999' 
TABS,ioos:station:wmo:42044:1,2006-06-04T15:00:00Z,26.1914,-97.0507,2.0,246.7387746,8.457452335,-99999.0,'11133222,11111222,99999999' 
TABS,ioos:station:wmo:42044:1,2006-06-04T15:30:00Z,26.1914,-97.0507,2.0,237.4496517,9.478929264,-99999.0,'11133222,11111222,99999999' 
TABS,ioos:station:wmo:42044:1,2006-06-04T16:00:00Z,26.1914,-97.0507,2.0,246.554169,7.313836203,-99999.0,'11133222,11111222,99999999' 